Weather in Semibratovo

Russia / Yaroslavl Oblast     57°17′55″N   39°32′19″E
temp.,
°C
wind,
m/s
gust,
m/s
humid.,
%
clouds,
%
prec.,
mm/h
press.,
hPa
HPBL,
m
21 april, wed
wed2100:00+4e71496100 0.1 1016908
03:00+2e71496100 0.6 1012777
06:00+2e81696100 2.3 1007822
09:00+3e71696100 6.9 10031024
12:00+3s101596100 1.4 1003747
15:00+4ssw6987100 1.5 1006916
18:00+4ssw5887100 0.1 1008688
21:00+3ssw4991100 0.1 1010421
22 april, thu
thu2200:00+3ssw4992100 0.0 1010306
03:00+3ssw4992100 0.0 1012293
06:00+4s4993100 0.0 1012278
09:00+7ssw697999 0.0 1014593
12:00+10ssw796796 0.2 10141207
15:00+11ssw796584 0.4 10151380
18:00+10s697254 0.1 1015798
21:00+8s51180100 0.1 1016275
23 april, fri
fri2300:00+7sse5119043 0.0 1015265
03:00+8sse6128554 0.0 1015398
06:00+7sse6129252 0.0 1015406
09:00+11s7117354 0.0 1015658
12:00+15s9145740 0.1 10141702
15:00+16s8125323 1.0 10141955
18:00+14s8125987 0.9 10141053
21:00+10sse388273 2.6 1014188
24 april, sat
sat2400:00+9se5148057 0.1 1013344
03:00+9se61477100 0.1 1011367
06:00+9se6158081 0.1 1010427
09:00+12se813727 0.3 1008866
12:00+15sse8125753 1.5 10061698
15:00+15se91259100 3.1 10041850
18:00+10se61189100 5.1 1002890
21:00+6wsw6891100 10.8 1002427
25 april, sun
sun2500:00+3wsw5897100 2.7 1001502
03:00+2wsw71296100 4.5 1001773
06:00+2sw81395100 1.1 1002979
09:00+4sw71279100 1.4 10031144
12:00+6sw81062100 0.8 10041694
15:00+6sw91167100 1.6 10061462
18:00+5sw697241 0.3 10061216
21:00+2ssw49835 0.3 1007240